Вернуться в каталог

STARLINK-32800

АктивенСвязьVLEO
NORAD 62743·PAYLOAD·🇺🇸 United States

Запущен Jan 21, 2025 с Cape Canaveral Space Force Station

Loading…

Ближайшие Пролёты (ближайшие 24 часа)

TLE

СвежийSource: CelesTrak SupGP

Эпоха: Sep 15, 2026, 02:59 UTC

1 62743C 25014J   26258.12479167  .00001862  00000+0  67441-4 0  2584
2 62743  42.9995 171.9025 0001329 268.9586 108.2454 15.27572603    19

Отслеживайте STARLINK-32800 в реальном времени с AllMySat

Download on the App Store